Location: Newark
(45.4422°N, 16.2769°E)
Time: 19:57:28
(UTC+00:00)

Courier 1B Rocket - Pass Details

Date: 06 December 2019
Orbit: 920 x 1202 km, 28.2° (Epoch: 28 January)

Event Time Altitude Azimuth Distance (km) Brightness Sun altitude
Rises 08:33:49 0° 234° (SW) 3,596 8.0 15.8°
Reaches altitude 10° 08:37:34 10° 213° (SSW) 2,622 7.7 16.1°
Maximum altitude 08:41:06 16° 178° (S) 2,224 8.2 16.4°
Drops below altitude 10° 08:44:37 10° 143° (SE) 2,602 9.7 16.7°
Sets 08:48:20 0° 122° (ESE) 3,555 9.0 17.0°
